RH
43 42 40 38 38 30 58 84 97 99 100 100 97 98 87 66 59 57 57 51 55 60 84 90 96 86 79 69 75 73 70 82 92 88 81 78 79 86 81 92 87 92 88 65
42 41 40 39 38 32 54 79 99 97 98 97 91 82 69 65 63 60 58 55 54 51 57 73 69 66 67 72 64 70 70 88 98 96 82 84 91 86 79 80 85 93 91 73
42 40 40 39 38 37 46 74 93 91 100 97 84 86 87 68 63 60 53 55 51 52 57 66 72 69 62 60 59 60 58 81 77 84 70 85 96 79 76 87 98 83 77 66
41 42 43 42 38 37 36 58 93 90 95 86 80 81 83 86 86 67 59 61 75 60 59 63 74 69 63 59 68 75 70 94 78 69 62 84 89 87 87 96 82 88 62 64
43 44 46 44 40 38 38 47 63 86 72 66 76 64 86 78 73 82 79 82 81 60 74 71 66 68 66 63 60 71 71 92 79 82 68 83 85 83 89 83 81 84 81 84
45 47 49 48 42 38 48 59 71 87 65 66 69 54 56 65 72 74 74 82 78 76 86 88 73 63 56 56 67 75 73 90 88 81 76 71 84 76 80 81 82 73 85 63
49 52 53 52 47 44 47 57 60 52 66 63 57 67 59 64 74 84 76 76 76 79 76 65 62 56 62 60 68 66 79 80 84 88 76 74 46 47 58 68 63 73 76 67
54 57 58 56 54 52 48 55 61 66 85 77 70 72 70 62 61 75 86 85 68 85 73 68 70 77 64 62 63 69 66 80 93 90 95 67 44 62 65 66 62 57 63 60
62 63 64 61 61 58 56 60 59 66 76 90 83 78 71 81 78 72 76 73 74 78 85 83 77 88 72 78 73 65 64 69 76 92 86 85 49 58 55 54 78 54 64 68
63 70 67 69 71 64 60 61 57 58 79 88 81 85 84 76 78 76 78 61 73 86 85 92 93 87 65 82 72 83 83 81 92 89 89 82 59 52 51 76 58 60 66 66
70 71 71 73 76 70 58 65 68 63 80 91 83 79 75 78 75 77 64 88 86 97 91 95 94 92 81 77 69 77 84 90 94 91 93 92 48 58 67 55 58 62 62 63
76 72 70 76 77 70 59 61 69 66 71 80 81 80 81 80 86 78 69 90 98 99 99 94 92 79 96 84 80 68 82 73 78 81 77 50 45 55 46 51 55 57 62 60
74 68 71 85 79 68 58 61 65 57 66 72 76 80 77 83 82 86 73 84 97 86 82 91 94 96 98 88 90 91 64 64 78 69 56 58 52 53 58 62 63 62 61 57
65 63 70 79 72 64 58 56 66 66 69 74 71 71 69 75 83 86 81 82 78 79 72 84 92 88 85 88 91 91 80 81 78 80 64 67 56 65 63 55 57 64 67 61
58 61 67 67 62 53 60 58 63 66 66 77 68 75 79 80 76 76 82 97 92 82 82 96 95 85 90 88 86 91 73 77 86 90 96 74 61 47 43 46 60 68 67 67
56 64 63 50 51 55 57 64 63 64 60 58 85 72 77 83 86 86 84 92 96 84 84 85 80 75 88 88 82 59 48 48 48 54 62 65 59 52 42 54 51 61 70 71
57 54 49 53 55 56 56 62 66 62 61 63 72 77 73 87 90 88 84 87 87 84 86 89 85 72 79 95 88 51 54 79 92 89 90 70 67 72 70 46 37 66 73 78
50 50 53 60 61 59 54 60 63 66 66 69 91 81 77 84 94 93 89 89 91 91 92 92 93 79 78 84 62 66 92 99 98 96 95 98 99 89 83 92 72 87 82 79
55 59 57 54 56 58 67 62 65 55 61 70 78 98 95 76 91 99 99 95 92 89 92 91 85 84 93 86 88 99 100 100 100 98 99 99 100 100 99 98 99 99 93 80
57 59 53 54 62 60 61 69 69 66 69 72 92 99 96 83 81 86 99 96 96 100 84 86 85 86 72 80 100 99 99 99 100 100 97 98 98 99 99 99 100 100 100 95
58 49 57 66 70 62 64 83 79 77 81 96 92 94 93 87 98 98 92 99 98 97 96 94 96 94 83 95 100 100 100 99 100 100 100 100 100 99 99 100 100 100 100 100
40 42 58 69 68 59 59 94 72 82 68 88 94 91 88 84 91 98 99 100 98 96 97 97 96 92 84 74 76 77 100 100 99 99 100 99 99 100 99 99 100 99 99 100
42 41 50 47 53 47 33 31 69 69 75 79 68 70 79 88 97 95 99 99 98 99 98 93 89 88 67 63 53 45 50 96 96 95 96 97 97 99 100 98 92 78 76 68
32 29 51 62 66 62 76 70 75 52 67 70 84 94 98 99 99 93 95 84 99 99 99 92 93 58 70 60 51 52 39 50 99 93 97 97 98 98 98 68 42 40 45 46
33 26 38 76 83 92 72 71 58 57 58 74 83 83 88 90 85 92 89 76 98 94 87 92 62 74 50 42 43 41 36 37 81 97 95 98 97 98 94 71 75 49 28 36
40 47 76 97 74 99 91 64 62 57 65 76 86 94 95 88 92 80 83 89 96 84 94 77 61 42 38 47 50 48 43 50 65 98 96 97 98 98 97 45 30 26 27 29
46 70 55 47 42 45 56 53 56 62 65 79 89 69 60 82 93 90 82 89 88 79 78 63 48 42 47 50 54 52 53 64 79 98 99 97 98 97 97 97 82 47 29 32
Wind_Speed
12 15 17 18 19 15 1 2 2 3 3 2 1 2 3 1 3 4 3 2 1 2 4 3 1 4 2 5 5 4 1 5 4 2 3 2 3 5 5 4 5 1 2 8
11 12 15 17 18 15 3 3 4 2 1 2 1 4 3 2 3 3 4 4 4 3 3 4 2 2 8 8 3 4 4 2 4 2 2 3 4 5 3 2 2 5 3 5
9 11 13 15 15 13 4 2 1 1 3 3 2 3 3 3 3 2 3 2 3 3 4 5 4 2 3 2 3 11 5 3 4 5 4 4 5 10 13 10 5 7 14 16
6 9 12 14 15 10 3 3 1 2 1 1 3 1 2 2 4 5 6 4 5 2 2 3 3 3 3 5 6 5 3 1 2 3 2 3 4 7 14 16 21 10 17 17
6 8 10 12 12 8 7 3 2 2 1 3 1 4 3 3 4 3 3 4 5 2 4 3 2 3 0 3 2 4 2 2 3 4 3 4 4 7 9 17 19 17 21 24
4 7 10 12 12 8 6 4 3 2 5 3 1 0 1 4 5 5 7 2 1 4 2 4 4 6 1 2 6 3 4 5 3 4 2 2 6 14 14 6 7 16 16 23
2 6 9 11 12 12 10 7 3 2 1 2 2 4 3 5 6 3 4 11 3 2 9 1 2 8 7 8 3 5 5 4 3 3 1 1 5 3 6 13 11 12 11 13
1 4 7 8 9 11 10 11 4 3 2 2 4 8 4 5 5 4 3 6 8 9 2 3 3 4 2 0 3 2 2 4 2 3 3 7 3 1 4 5 5 4 13 15
2 4 6 7 9 9 9 11 9 5 6 3 3 2 6 3 4 5 3 3 8 7 2 3 2 2 3 1 1 2 3 4 3 2 1 4 5 1 3 3 4 3 5 7
7 6 6 7 8 10 7 9 7 5 6 4 4 3 1 0 1 2 2 8 6 11 1 2 2 1 2 2 3 3 2 1 4 4 2 6 6 5 3 2 4 11 9 15
8 6 6 6 7 9 9 10 10 6 6 6 4 3 2 1 2 1 5 1 4 4 2 2 1 1 0 1 2 4 5 4 3 2 3 6 3 1 3 4 8 13 16 15
7 6 6 6 7 8 8 9 10 12 7 5 6 5 6 8 1 3 2 2 1 3 1 2 1 1 1 1 2 2 2 4 2 6 5 4 3 7 11 12 18 15 15 15
8 7 6 4 5 8 8 11 12 17 11 7 3 2 5 5 4 2 3 1 1 2 4 3 1 1 2 1 2 3 2 1 2 3 4 5 18 15 12 19 24 22 15 11
9 7 6 4 4 7 10 13 12 9 8 4 1 5 6 8 5 2 2 2 2 2 4 2 2 2 3 1 3 2 3 6 3 6 6 16 7 16 22 31 28 23 18 11
9 8 7 6 6 11 11 12 12 8 5 4 2 4 8 8 6 6 5 2 2 4 3 2 0 1 2 1 2 3 2 2 2 4 1 5 16 32 35 34 30 27 19 17
11 10 10 12 12 11 6 5 9 6 6 4 2 2 5 8 7 7 5 5 2 1 3 2 3 1 1 1 2 4 7 10 15 10 26 28 32 29 30 29 31 31 20 19
15 18 17 16 14 9 7 7 5 6 5 3 3 3 4 8 6 5 4 1 2 2 1 0 1 2 3 0 2 3 23 26 30 28 25 20 20 24 28 33 33 27 20 17
23 23 20 22 19 21 22 18 9 5 6 5 3 3 1 11 5 3 2 1 1 1 3 2 1 2 3 2 12 23 29 30 24 21 24 30 30 29 30 28 24 19 20 17
27 25 22 13 6 6 9 12 13 15 8 4 4 1 3 9 4 2 1 1 2 1 2 1 1 1 1 8 16 23 26 21 28 29 27 27 27 31 30 28 17 17 19 16
27 17 6 4 6 10 8 6 4 5 5 5 4 0 3 4 4 2 0 2 2 1 1 3 1 2 14 12 20 21 22 22 22 23 23 27 29 26 20 14 11 11 14 11
17 7 4 16 13 5 4 4 4 4 4 2 0 3 3 1 1 2 1 1 2 2 1 1 0 3 2 14 20 19 18 20 19 16 20 19 19 19 10 8 5 2 7 6
11 10 17 9 4 4 6 1 3 3 2 2 2 3 3 2 3 2 1 1 1 2 6 2 2 2 10 22 25 26 23 22 22 18 17 16 16 12 5 4 3 3 3 2
21 5 4 2 2 7 5 2 3 1 3 4 2 3 1 2 2 3 1 1 1 9 2 3 3 4 17 24 25 29 27 24 23 21 16 13 12 11 6 5 5 4 4 5
4 5 4 2 1 1 4 5 5 4 3 2 2 1 1 1 1 2 2 1 2 0 1 5 3 9 19 25 26 28 29 25 24 22 18 15 12 10 6 5 6 8 8 6
3 3 2 1 6 6 8 9 7 5 2 1 1 1 2 2 2 2 1 2 3 5 4 3 5 17 24 27 28 26 26 24 22 21 19 16 13 11 6 6 6 8 8 6
3 4 6 8 6 3 6 8 7 6 2 1 3 2 3 3 1 3 5 2 6 4 3 4 16 23 25 26 26 25 22 22 19 21 20 18 16 13 9 6 6 5 6 7
3 4 11 9 10 10 10 9 8 8 3 2 4 2 6 1 2 4 4 4 3 2 9 13 20 22 23 25 26 23 21 21 16 17 20 19 16 12 11 11 8 7 9 9
Wind_Direction
342 342 344 348 354 358 81 147 87 143 116 280 215 265 223 260 343 14 28 112 30 114 149 108 95 221 247 180 155 69 91 122 126 132 350 332 135 165 164 149 226 250 127 264
342 344 350 350 356 358 62 99 116 148 203 295 272 296 297 306 25 14 21 24 15 11 101 107 121 306 332 174 111 154 189 32 106 58 1 345 223 180 153 90 82 196 193 261
346 345 349 353 357 359 38 114 78 146 212 264 242 357 345 338 22 15 49 17 54 46 31 36 140 114 31 101 94 62 72 107 149 185 190 135 205 207 203 206 231 232 236 270
344 353 358 358 360 360 31 77 115 158 258 309 359 321 354 345 40 358 33 46 27 53 73 32 60 73 98 53 104 51 72 143 94 288 266 171 207 210 205 211 233 230 259 249
342 356 6 6 4 14 62 90 144 141 17 296 234 355 358 38 330 32 39 71 329 7 97 59 186 118 210 172 118 131 160 149 76 322 347 232 269 246 229 231 235 245 256 270
338 359 7 12 14 26 78 75 83 77 12 359 208 56 330 348 340 80 66 153 74 59 7 305 287 244 235 192 147 126 127 130 101 258 319 312 285 234 214 221 235 226 242 246
340 11 8 16 25 45 68 77 95 83 33 66 45 357 353 349 342 325 348 44 50 339 322 39 137 58 110 123 77 143 134 113 110 215 11 244 237 194 185 208 237 225 252 258
59 33 30 31 39 59 59 57 78 82 95 37 32 11 7 345 347 10 3 19 344 322 309 65 52 356 46 142 162 139 130 131 107 131 207 290 345 150 145 177 279 219 237 259
122 90 66 63 63 68 60 56 57 86 111 35 12 359 22 42 343 346 348 353 356 0 79 69 138 197 212 224 87 88 127 102 114 145 114 255 243 264 185 148 297 250 244 271
123 109 88 85 71 63 56 55 54 92 100 55 45 77 34 23 93 203 320 337 357 3 348 141 156 248 190 153 179 150 148 193 169 223 240 281 251 283 163 74 254 317 314 313
124 112 105 90 69 58 50 58 44 100 100 95 68 51 57 346 50 50 334 261 27 355 71 31 53 88 316 17 217 182 174 167 215 179 197 278 202 95 174 233 313 320 323 325
139 127 122 101 81 53 49 63 63 100 94 95 91 94 45 40 348 277 44 136 180 129 221 52 333 68 45 99 284 345 260 193 208 190 222 268 260 269 281 294 295 306 314 324
152 146 137 115 75 52 67 63 105 115 100 92 74 355 356 342 331 244 323 4 357 73 94 126 77 78 333 262 244 303 272 36 236 355 298 307 319 327 350 2 334 306 298 307
155 149 144 123 78 85 98 72 94 112 108 100 72 37 44 35 47 349 279 287 20 10 354 56 124 148 25 299 314 255 250 330 269 259 310 324 310 337 334 328 332 326 288 276
153 148 133 125 116 124 124 79 79 83 119 127 131 66 44 28 26 28 17 290 265 326 341 13 340 46 29 341 296 265 303 358 344 275 343 304 295 308 316 317 320 326 293 265
150 141 122 118 113 124 127 80 52 67 98 104 63 72 44 16 6 28 53 59 62 10 347 349 333 359 84 31 262 285 337 337 319 285 299 301 301 302 303 300 304 312 299 256
139 127 124 111 100 111 105 98 108 97 94 81 65 17 20 2 14 46 64 88 339 325 309 91 336 348 8 26 252 276 324 320 314 314 309 305 308 304 300 291 289 300 290 246
136 126 121 107 103 88 81 74 75 94 77 66 77 299 51 12 15 43 35 70 1 320 327 331 357 30 42 280 273 310 321 323 319 322 311 301 305 302 298 308 292 269 263 233
137 129 116 106 90 75 82 81 69 59 69 87 76 43 284 358 12 329 60 67 54 357 328 264 133 73 257 248 296 312 314 317 306 312 313 318 315 312 305 293 277 248 241 226
140 135 111 120 108 109 103 64 49 43 46 58 96 343 279 339 309 319 314 103 74 350 227 127 227 252 252 294 315 319 318 322 322 316 319 321 313 309 304 277 252 239 238 238
157 145 104 130 128 108 76 76 53 15 43 29 297 201 282 62 340 293 356 360 114 26 28 296 214 252 212 339 338 338 334 332 328 315 312 322 320 327 300 284 251 227 240 229
157 132 123 127 119 90 86 8 337 67 211 231 236 294 276 268 286 269 3 81 99 297 153 235 251 268 341 348 345 345 342 336 333 333 326 327 328 339 339 309 304 277 258 246
129 120 116 159 64 52 105 163 308 16 199 209 278 306 266 241 277 294 205 168 192 146 208 235 224 298 338 342 344 343 341 336 332 332 331 331 324 319 332 4 3 344 337 339
137 150 60 107 338 193 173 164 168 149 178 271 314 252 188 253 25 271 86 213 230 320 222 229 242 338 334 335 336 334 333 332 325 327 329 329 323 313 313 354 358 352 344 349
119 120 121 148 124 100 126 125 129 151 191 316 100 180 240 241 223 213 323 220 268 205 226 228 332 330 329 329 329 327 325 326 320 317 320 323 326 315 293 325 328 322 328 333
102 96 98 131 98 115 150 155 153 164 198 112 114 75 25 273 236 197 205 204 226 247 210 294 325 330 330 328 328 324 319 317 313 313 306 310 311 305 285 290 315 329 322 319
97 88 128 118 116 143 152 156 159 172 185 168 120 102 225 343 236 236 209 221 223 229 301 311 323 328 329 329 327 324 316 316 308 309 305 305 305 305 291 260 244 293 331 320